Regional Weather Roundup
Issued by NWS

Home | Current Version | Previous Version | Graphics & Text | Print | Product List | Glossary On
Versions: 1 2 3 4 5 6 7 8 9 10 11 12 13 14 15 16 17 18 19 20 21 22 23 24 25 26 27 28 29 30 31 32 33 34 35 36 37 38 39 40 41 42 43 44 45 46 47 48 49 50
000
ASUS43 KIND 230559
RWRIN

WEATHER ROUNDUP FOR INDIANA
NATIONAL WEATHER SERVICE INDIANAPOLIS IN
200 AM EDT SAT MAY 23 2015

NOTE: "FAIR" INDICATES FEW OR NO CLOUDS BELOW 12,000 FEET WITH NO
SIGNIFICANT WEATHER AND/OR OBSTRUCTIONS TO VISIBILITY.

* - STATION DOES NOT REPORT WEATHER SUCH AS PRECIPITATION OR FOG.

+ - STATION NOT QUALITY CONTROLLED BY THE NATIONAL WEATHER SERVICE.
    USE DATA WITH CAUTION...ESPECIALLY DEWPOINT AND RELATIVE
    HUMIDITY OBSERVATIONS.

INZ001>003-010>013-019-020-230700-
NORTHWEST INDIANA

CITY           SKY/WX    TMP DP  RH WIND       PRES   REMARKS

$$

LMZ046-743>745-230700-
SOUTHERN LAKE MICHIGAN

STATION/POSITION TIME  TEMP    WIND        PRES    WAVE
                       AIR SEA DIR/SP/G            HT
                 (UTC) (F)     (DEG/KT/KT) (MB)    (FT)
BURNS HARBOR     0500   57     110/ 10/ 15 1026.1F
MICHIGAN CITY    0500   54     100/  2/  4   N/A
5NW MICH CITY    0500   53 52  160/  2/  4   N/A     1

$$

INZ004-005-014>016-021>024-230700-
NORTH CENTRAL INDIANA

CITY           SKY/WX    TMP DP  RH WIND       PRES   REMARKS
GOSHEN         MOCLDY    46  36  68 E3        30.30S
6HR MIN TEMP:  45; 6HR MAX TEMP:  63;

SOUTH BEND     CLOUDY    49  37  63 CALM      30.31S
6HR MIN TEMP:  49; 6HR MAX TEMP:  62;


$$

INZ006>009-017-018-025>027-230700-
NORTHEAST INDIANA

CITY           SKY/WX    TMP DP  RH WIND       PRES   REMARKS
ANGOLA *+      CLEAR     45  37  76 CALM      30.31F
FORT WAYNE     MOCLDY    53  35  50 NE3       30.31F
6HR MIN TEMP:  52; 6HR MAX TEMP:  67;


$$

INZ028-029-035-036-043>045-051>053-230700-
WEST CENTRAL INDIANA

CITY           SKY/WX    TMP DP  RH WIND       PRES   REMARKS
GREENCASTLE +  MOCLDY    57  41  54 CALM      30.29S
LAFAYETTE      PTCLDY    51  39  63 E6        30.29R
6HR MIN TEMP:  51; 6HR MAX TEMP:  69;

TERRE HAUTE    CLOUDY    60  56  86 CALM      30.27S
6HR MIN TEMP:  60; 6HR MAX TEMP:  70;


$$

INZ030>032-037>040-046>048-054>057-064-065-230700-
CENTRAL INDIANA

CITY           SKY/WX    TMP DP  RH WIND       PRES   REMARKS
GREENWOOD *+   PTCLDY    59  41  51 CALM      30.29F
INDIANAPOLIS   MOCLDY    59  44  57 NE9       30.27S
6HR MIN TEMP:  59; 6HR MAX TEMP:  72;

-EAGLE CREEK   PTCLDY    59  41  51 NE6       30.29S
6HR MIN TEMP:  55; 6HR MAX TEMP:  72;

KOKOMO *+      PTCLDY    54  37  54 E6        30.30S
6HR MIN TEMP:  54; 6HR MAX TEMP:  70;

MT COMFORT *+  CLEAR     52  39  62 CALM      30.30S
SHELBYVILLE    CLEAR     59  45  59 E9        30.28F
6HR MIN TEMP:  55; 6HR MAX TEMP:  74;


$$

INZ033-034-041-042-049-050-058-059-230700-
EAST CENTRAL INDIANA

CITY           SKY/WX    TMP DP  RH WIND       PRES   REMARKS
MUNCIE         MOCLDY    52  41  66 E6        30.30F
6HR MIN TEMP:  51; 6HR MAX TEMP:  70;


$$

INZ060-061-067>069-081>083-085>088-230700-
SOUTHWEST INDIANA

CITY           SKY/WX    TMP DP  RH WIND       PRES   REMARKS
EVANSVILLE     PTCLDY    61  54  77 CALM      30.28F
6HR MIN TEMP:  60; 6HR MAX TEMP:  71;

HUNTINGBURG *+ MOCLDY    55  48  76 SE5       30.29S
6HR MIN TEMP:  55; 6HR MAX TEMP:  70;


$$

INZ062-063-066-070>080-084-089>092-230700-
SOUTH CENTRAL AND SOUTHEAST INDIANA

CITY           SKY/WX    TMP DP  RH WIND       PRES   REMARKS
BLOOMINGTON    MOCLDY    57  53  86 CALM      30.27F
6HR MIN TEMP:  54; 6HR MAX TEMP:  69;

MADISON *+     CLEAR     52  46  82 CALM      30.31S
SEYMOUR +      CLEAR     54  50  87 CALM      30.29S

$$




USA.gov is the U.S. government's official web portal to all federal, state and local government web resources and services.